TimeAKDT,TemperatureF,Dew PointF,Humidity,Sea Level PressureIn,VisibilityMPH,Wind Direction,Wind SpeedMPH,Gust SpeedMPH,PrecipitationIn,Events,Conditions,WindDirDegrees,DateUTC
12:53 AM,35.1,35.1,100,29.91,5.0,East,15.0,-,N/A,,Overcast,90,2012-10-05 08:53:00
1:53 AM,35.1,35.1,100,29.91,4.0,East,15.0,-,N/A,,Overcast,90,2012-10-05 09:53:00
2:34 AM,33.8,33.8,100,29.91,1.8,East,13.8,-,N/A,,Overcast,90,2012-10-05 10:34:00
2:45 AM,33.8,33.8,100,29.91,1.0,East,11.5,-,N/A,,Overcast,90,2012-10-05 10:45:00
2:53 AM,33.1,33.1,100,29.91,1.0,East,12.7,20.7,N/A,,Overcast,90,2012-10-05 10:53:00
3:11 AM,33.8,33.8,100,29.90,0.8,East,11.5,-,N/A,,Overcast,80,2012-10-05 11:11:00
3:20 AM,32.0,32.0,100,29.90,1.5,East,11.5,-,N/A,,Overcast,90,2012-10-05 11:20:00
3:40 AM,32.0,32.0,100,29.88,0.8,East,12.7,-,N/A,,Overcast,80,2012-10-05 11:40:00
3:53 AM,32.0,32.0,100,29.89,7.0,East,13.8,-,N/A,,Overcast,90,2012-10-05 11:53:00
4:53 AM,32.0,32.0,100,29.88,10.0,East,12.7,-,N/A,,Scattered Clouds,90,2012-10-05 12:53:00
5:53 AM,30.9,30.9,100,29.87,10.0,East,8.1,-,N/A,,Clear,80,2012-10-05 13:53:00
6:53 AM,32.0,32.0,100,29.85,10.0,East,8.1,-,N/A,,Mostly Cloudy,90,2012-10-05 14:53:00
7:53 AM,33.1,32.0,96,29.86,10.0,ESE,5.8,-,0.00,,Overcast,120,2012-10-05 15:53:00
8:53 AM,34.0,34.0,100,29.85,10.0,Calm,Calm,-,0.02,,Overcast,0,2012-10-05 16:53:00
9:53 AM,36.0,34.0,93,29.88,10.0,SSW,10.4,-,N/A,,Overcast,210,2012-10-05 17:53:00
10:53 AM,37.9,36.0,93,29.89,10.0,WSW,6.9,-,0.01,Rain,Light Rain,240,2012-10-05 18:53:00
11:53 AM,37.9,37.0,97,29.90,10.0,SSW,8.1,-,0.00,,Overcast,200,2012-10-05 19:53:00
12:53 PM,42.1,39.0,89,29.91,10.0,SSW,9.2,-,N/A,,Scattered Clouds,200,2012-10-05 20:53:00
1:53 PM,45.0,37.0,74,29.92,10.0,SSW,11.5,-,N/A,,Scattered Clouds,200,2012-10-05 21:53:00
2:53 PM,43.0,37.0,80,29.92,10.0,South,8.1,-,N/A,,Partly Cloudy,180,2012-10-05 22:53:00
4:47 PM,44.6,37.4,76,-9999,10.0,South,6.9,-,N/A,,Clear,190,2012-10-06 00:47:00
4:53 PM,44.1,37.9,79,29.91,10.0,South,6.9,-,N/A,,Clear,180,2012-10-06 00:53:00
5:53 PM,41.0,35.1,79,29.89,10.0,South,5.8,-,N/A,,Clear,170,2012-10-06 01:53:00
6:53 PM,39.0,34.0,82,29.89,10.0,SE,3.5,-,N/A,,Clear,130,2012-10-06 02:53:00
7:53 PM,34.0,30.9,89,29.88,10.0,SE,6.9,-,N/A,,Clear,140,2012-10-06 03:53:00
8:53 PM,33.1,30.0,89,29.87,10.0,South,9.2,-,N/A,,Clear,170,2012-10-06 04:53:00
9:53 PM,30.9,28.9,92,29.87,10.0,South,8.1,-,N/A,,Clear,170,2012-10-06 05:53:00
10:53 PM,30.9,28.0,89,29.87,10.0,South,10.4,-,N/A,,Clear,170,2012-10-06 06:53:00
11:53 PM,32.0,28.0,85,29.86,10.0,South,9.2,-,N/A,,Clear,180,2012-10-06 07:53:00